This demonstration page uses our WeatherBlox Daily Observations layout. Learn more.

Left ArrowRight Arrow

36.17497, -115.13722

Hourly Observations for October 3, 2021

Temp ( °F °C ) Dew Point ( °F °C ) Humidity (%) Winds ( mph kmh ) Pressure ( in mb ) Visibility ( mi km ) Precip ( " mm )
12:53 am 00:53 Clear 72 22.2 28 -2.2 19 19 WNW 8 13 30.00 1016 10 16 0.00 0.00
1:53 am 01:53 Clear 71 21.7 32 0 24 24 W 7 11 30.00 1016 10 16 0.00 0.00
2:53 am 02:53 Clear 76 24.4 26 -3.3 16 16 NNW 9 15 29.99 1016 10 16 0.00 0.00
3:53 am 03:53 Clear 73 22.8 27 -2.8 18 18 NW 8 13 30.00 1016 10 16 0.00 0.00
4:53 am 04:53 Clear 72 22.2 26 -3.3 18 18 NNW 8 13 30.01 1016 10 16 0.00 0.00
5:53 am 05:53 Clear 69 20.6 30 -1.1 23 23 WNW 12 19 30.02 1017 10 16 0.00 0.00
6:53 am 06:53 Sunny 69 20.6 29 -1.7 22 22 WNW 8 13 30.04 1017 10 16 0.00 0.00
7:53 am 07:53 Sunny 72 22.2 30 -1.1 21 21 NW 5 7 30.05 1018 10 16 0.00 0.00
8:53 am 08:53 Sunny 78 25.6 30 -1.1 17 17 Calm 30.06 1018 10 16 0.00 0.00
9:53 am 09:53 Sunny 81 27.2 29 -1.7 15 15 N 3 6 30.06 1018 10 16 0.00 0.00
10:53 am 10:53 Sunny 83 28.3 29 -1.7 14 14 SSE 5 7 30.05 1018 10 16 0.00 0.00
11:53 am 11:53 Sunny 86 30 27 -2.8 12 12 VRB 3 6 30.03 1017 10 16 0.00 0.00
12:53 pm 12:53 Sunny 88 31.1 27 -2.8 11 11 VRB 3 6 30.01 1016 10 16 0.00 0.00
1:53 pm 13:53 Sunny 91 32.8 28 -2.2 10 10 VRB 3 6 29.97 1015 10 16 0.00 0.00
2:53 pm 14:53 Sunny 92 33.3 29 -1.7 10 10 E 6 9 29.94 1014 10 16 0.00 0.00
5:30 pm 17:30 Sunny 91 33 32 0 12 12 S 5 7 29.76 1008 10 16 0.00 0.00
5:35 pm 17:35 Sunny 90 32 32 0 13 13 SSW 6 9 29.76 1008 10 16 0.00 0.00
5:55 pm 17:55 Sunny 90 32 32 0 13 13 S 3 6 29.76 1008 10 16 0.00 0.00
6:53 pm 18:53 Clear 88 31.1 33 0.6 14 14 Calm 29.93 1013 10 16 0.00 0.00
7:53 pm 19:53 Clear 84 28.9 35 1.7 17 17 W 6 9 29.93 1014 10 16 0.00 0.00
8:53 pm 20:53 Clear 80 26.7 36 2.2 20 20 NNW 7 11 29.95 1014 10 16 0.00 0.00
9:53 pm 21:53 Clear 78 25.6 35 1.7 21 21 NW 6 9 29.96 1015 10 16 0.00 0.00
10:53 pm 22:53 Clear 76 24.4 35 1.7 23 23 NNE 7 11 29.96 1015 10 16 0.00 0.00
11:53 pm 23:53 Clear 74 23.3 33 0.6 22 22 NW 6 9 29.96 1015 10 16 0.00 0.00

Powered by AerisWeather